Location: Gaast
(52.9002°N, 5.8891°E)
Time: 13:32:15
(UTC+00:00)

ACS3 Solar Sail - Pass Details

Date: 20 January 2026
Orbit: 900 x 968 km, 97.2° (Epoch: 10 February)

Event Time Altitude Azimuth Distance (km) Brightness Sun altitude
Rises 04:00:22 0° 7° (N) 3,654 5.0 -32.0°
Reaches altitude 10° 04:03:23 10° 353° (N) 2,693 4.1 -31.5°
Enters shadow 04:03:39 11° 352° (N) 2,617 4.0 -31.5°
